Weather History for Lake Charles Regional, LA

Change the Weather History Date:

Friday, August 9, 2013

  Actual Average Record
Temperature  
Mean Temperature 88 °F 83 °F  
Max Temperature 98 °F 92 °F 104 °F (1935)
Min Temperature 77 °F 75 °F 61 °F (1989)
Degree Days  
Heating Degree Days 0 0  
Month to date heating degree days 0 0  
Since 1 June heating degree days 0 0  
Since 1 July heating degree days 0 0  
Cooling Degree Days 23 18  
Month to date cooling degree days 197 162  
Year to date cooling degree days 1801 1733  
Since 1 June cooling degree days 1316 1195  
Growing Degree Days 38 (Base 50)    
Moisture  
Dew Point 75 °F    
Average Humidity 68    
Maximum Humidity 91    
Minimum Humidity 45    
Precipitation  
Precipitation 0.00 in 0.17 in 3.24 in (1919)
Month to date precipitation 0.05 1.52  
Year to date precipitation 35.34 34.88  
Snow  
Snow 0.00 in 0.00 in 0.00 in ()
Month to date snowfall 0.0 0.0  
Since 1 June snowfall 0.0 0.0  
Since 1 July snowfall 0.0 0.0  
Snow Depth 0.00 in    
Sea Level Pressure  
Sea Level Pressure 29.95 in    
Wind  
Wind Speed 5 mph (ESE)    
Max Wind Speed 17 mph    
Max Gust Speed 22 mph    
Visibility 10 miles    
Events Thunderstorm    
T = Trace of Precipitation, MM = Missing Value Source: NWS Daily Summary

Daily Weather History Graph

Daily Weather History Graph

Search for Another Location

Airport:

Trip Planner

Search our weather history database for the weather conditions in past years. The results will help you decide how hot, cold, wet, or windy it might be!

Date:

Astronomy

Aug. 09, 2013 Rise Set
Actual Time 6:36 AM CDT 7:59 PM CDT
Civil Twilight 6:11 AM CDT 8:25 PM CDT
Nautical Twilight 5:40 AM CDT 8:55 PM CDT
Astronomical Twilight 5:09 AM CDT 9:26 PM CDT
Moon 9:06 AM CDT (8/9) 9:28 PM CDT (8/9)
Length of Visible Light 14h 13m
Length of Day
13h 22m
Waxing Crescent, 8% of the Moon is Illuminated
Aug 9
Waxing Crescent
Aug 14
First Quarter
Aug 20
Full
Aug 28
Last Quarter
Sep 5
New

Hourly Weather History & Observations

Time (CDT) Temp. Heat Index Dew Point Humidity Pressure Visibility Wind Dir Wind Speed Gust Speed Precip Events Conditions
12:53 AM 78.1 °F - 75.0 °F 90% 29.95 in 10.0 mi Calm Calm - N/A   Clear
1:53 AM 78.1 °F - 73.9 °F 87% 29.95 in 10.0 mi Calm Calm - N/A   Clear
2:53 AM 77.0 °F - 73.9 °F 90% 29.94 in 10.0 mi Calm Calm - N/A   Clear
3:53 AM 78.1 °F - 73.9 °F 87% 29.94 in 10.0 mi Calm Calm - N/A   Clear
4:53 AM 77.0 °F - 73.9 °F 90% 29.94 in 10.0 mi Calm Calm - N/A   Clear
5:53 AM 77.0 °F - 73.9 °F 90% 29.95 in 10.0 mi Calm Calm - N/A   Clear
6:53 AM 77.0 °F - 73.9 °F 90% 29.96 in 8.0 mi ENE 3.5 mph - N/A   Clear
7:53 AM 80.1 °F 85.1 °F 75.0 °F 85% 29.97 in 9.0 mi NE 4.6 mph - N/A   Clear
8:53 AM 86.0 °F 96.0 °F 75.9 °F 72% 29.99 in 10.0 mi ENE 3.5 mph - N/A   Clear
9:53 AM 88.0 °F 96.5 °F 73.9 °F 63% 29.99 in 10.0 mi Calm Calm - N/A   Clear
10:53 AM 91.0 °F 100.4 °F 73.9 °F 57% 29.99 in 10.0 mi ESE 4.6 mph - N/A   Partly Cloudy
11:53 AM 91.0 °F 99.3 °F 73.0 °F 55% 29.99 in 10.0 mi ENE 4.6 mph - N/A   Scattered Clouds
12:53 PM 93.9 °F 102.1 °F 72.0 °F 49% 29.97 in 10.0 mi Calm Calm - N/A   Clear
1:53 PM 97.0 °F 104.8 °F 71.1 °F 43% 29.95 in 10.0 mi Calm Calm - N/A   Partly Cloudy
2:53 PM 97.0 °F 107.0 °F 73.0 °F 46% 29.94 in 10.0 mi SE 12.7 mph 16.1 mph N/A   Partly Cloudy
3:53 PM 96.1 °F 105.6 °F 73.0 °F 47% 29.92 in 10.0 mi SSE 9.2 mph - N/A   Partly Cloudy
4:53 PM 93.9 °F 105.4 °F 75.0 °F 54% 29.92 in 10.0 mi South 12.7 mph 20.7 mph N/A   Partly Cloudy
5:32 PM 95.0 °F 104.5 °F 73.4 °F 49% 29.90 in 10.0 mi South 11.5 mph 18.4 mph N/A Thunderstorm Clear
5:53 PM 90.0 °F 101.3 °F 75.9 °F 63% 29.93 in 10.0 mi SSE 12.7 mph - N/A   Partly Cloudy
6:06 PM 87.8 °F 97.6 °F 75.2 °F 66% 29.90 in 10.0 mi SSE 10.4 mph - N/A Thunderstorm Mostly Cloudy
6:53 PM 88.0 °F 98.5 °F 75.9 °F 67% 29.93 in 10.0 mi SSE 8.1 mph - N/A Thunderstorm Partly Cloudy
7:02 PM 87.8 °F 99.7 °F 77.0 °F 70% 29.91 in 10.0 mi SSE 6.9 mph - N/A   Partly Cloudy
7:53 PM 84.9 °F 95.3 °F 77.0 °F 77% 29.94 in 10.0 mi SE 10.4 mph - N/A   Clear
8:53 PM 82.9 °F 91.8 °F 77.0 °F 82% 29.97 in 10.0 mi ESE 5.8 mph - N/A   Clear
9:53 PM 82.0 °F 90.2 °F 77.0 °F 85% 30.00 in 10.0 mi ESE 6.9 mph - N/A   Clear
10:53 PM 81.0 °F 87.3 °F 75.9 °F 85% 30.01 in 10.0 mi East 5.8 mph - N/A   Clear
11:53 PM 80.1 °F 85.4 °F 75.9 °F 87% 30.02 in 10.0 mi East 4.6 mph - N/A   Clear